Location: Ammerl�gen
(47.2167°N, 9.6000°E)
Time: 02:46:12
(UTC+00:00)

Cosmos 2333 Rocket - Pass Details

Date: 21 April 2021
Orbit: 838 x 864 km, 70.8° (Epoch: 16 May)

Event Time Altitude Azimuth Distance (km) Brightness Sun altitude
Rises 19:20:51 0° 326° (NW) 3,452 6.7 -10.3°
Reaches altitude 10° 19:23:28 10° 319° (NW) 2,509 6.0 -10.7°
Maximum altitude 19:28:42 37° 254° (WSW) 1,314 3.6 -11.5°
Drops below altitude 10° 19:33:53 10° 188° (S) 2,480 4.4 -12.2°
Sets 19:36:28 0° 181° (S) 3,407 5.0 -12.6°
